Temperature
14 14 14 14 14 15 15 15 15 15 16 17 17 18 18 17 17 17 17 17 17 17 17 18 17 17 17 17 16 16 16 16 16 16 15 15 15 15
13 13 14 14 14 14 15 15 15 15 15 16 17 17 17 17 17 17 17 17 17 17 17 17 17 17 17 17 16 16 16 16 16 15 15 15 15 15
13 13 13 13 14 14 14 14 15 15 15 15 16 16 16 16 17 17 16 17 17 17 17 17 17 17 17 17 16 16 16 16 16 15 15 15 15 14
12 12 13 13 13 13 14 14 14 14 15 15 16 16 16 16 16 16 16 16 16 17 17 17 17 17 17 16 16 16 16 16 15 15 15 15 14 14
12 12 12 13 13 13 13 13 14 14 14 14 15 15 15 15 15 15 16 16 16 16 16 16 16 16 16 16 16 16 16 15 15 15 15 14 14 14
12 12 12 12 12 13 13 13 13 13 14 14 14 14 15 15 15 15 15 15 15 15 16 16 16 16 16 16 16 16 15 15 15 15 14 14 14 14
11 11 12 12 12 12 13 13 13 13 13 13 14 14 14 14 15 15 15 15 15 15 15 15 15 15 15 15 15 15 15 15 15 14 14 14 13 13
11 11 11 12 12 12 12 12 12 13 13 13 13 13 14 14 14 14 14 14 14 15 15 15 15 15 15 15 15 15 15 14 14 14 14 13 13 13
11 11 11 11 11 12 12 12 12 12 12 12 13 13 13 14 14 14 14 14 14 15 14 14 14 14 15 14 14 14 14 14 14 13 13 13 13 13
11 11 11 11 11 12 12 12 12 12 12 12 12 13 13 13 13 14 14 14 14 14 14 14 14 14 14 14 14 14 14 13 13 13 13 12 12 12
11 11 11 11 11 11 12 12 12 12 12 12 12 13 13 13 13 13 13 13 13 13 13 13 13 13 13 13 13 13 13 13 13 12 12 12 12 12
11 11 11 11 11 11 12 12 12 12 12 12 12 12 13 13 13 13 13 13 13 13 13 13 13 13 13 13 13 13 13 12 12 12 12 12 12 12
11 11 11 11 11 11 12 12 12 12 12 12 12 12 12 12 12 13 13 13 13 13 13 13 13 13 12 12 12 12 12 12 12 12 12 11 11 11
11 11 11 11 11 11 12 12 11 11 12 12 12 12 12 12 12 12 12 12 12 12 13 13 13 13 12 12 12 12 12 12 12 11 11 11 11 11
11 11 11 11 11 12 12 11 11 11 11 11 11 12 12 12 12 12 12 12 12 12 12 12 12 12 12 12 12 11 11 11 11 11 11 11 11 11
11 11 11 11 11 11 12 11 11 11 11 11 11 11 11 12 12 11 11 12 11 11 11 11 12 12 12 12 12 12 11 11 11 11 11 10 10 10
11 11 12 12 11 11 11 11 11 11 11 11 11 11 11 11 11 11 11 11 11 11 11 11 11 11 11 11 11 11 11 11 11 10 10 10 10 10
11 12 12 12 11 11 11 11 11 11 11 11 11 11 11 11 11 11 11 11 11 11 11 11 11 11 10 10 11 11 11 10 10 10 10 10 10 10
12 12 12 12 11 11 11 11 11 11 11 11 11 11 11 11 11 11 11 11 11 11 11 11 11 11 10 10 10 10 10 10 10 10 10 10 10 10
12 12 12 12 11 11 11 11 11 11 11 11 11 11 11 11 11 11 11 10 10 10 10 10 10 10 10 11 10 10 10 10 10 10 9 9 9 9
12 12 11 11 11 11 11 11 11 11 11 11 11 11 11 11 11 11 10 10 10 10 10 10 10 10 10 10 10 10 10 9 10 10 9 9 8 8
12 12 11 11 11 11 11 11 11 11 11 11 11 11 11 11 11 11 10 10 10 10 10 10 10 10 10 10 10 10 10 9 9 9 9 9 9 8
12 12 12 11 11 11 11 11 11 11 11 11 11 11 11 11 11 11 11 10 10 10 10 10 10 10 10 10 10 10 10 9 9 9 8 8 8 8
Wind_Speed
5 6 5 5 5 5 5 5 5 5 6 6 5 5 5 6 11 15 14 22 25 25 25 24 23 21 21 20 20 20 19 19 18 18 17 15 14 13
5 6 5 4 4 4 5 5 6 6 5 4 6 5 5 5 11 13 13 21 24 24 24 24 23 23 22 21 21 20 20 20 20 19 18 17 15 14
7 6 6 5 4 4 4 5 5 5 6 5 4 4 6 6 6 8 10 11 16 23 24 24 23 23 23 22 21 21 21 21 21 21 20 18 17 15
7 7 6 5 5 4 4 5 5 5 6 7 4 4 6 6 6 7 6 8 10 19 23 23 23 24 23 23 23 22 22 22 22 22 21 19 18 17
7 7 6 6 5 3 4 4 4 5 4 5 5 4 4 4 4 5 5 5 6 12 20 21 22 24 24 24 24 23 23 23 23 23 22 20 19 18
8 7 6 4 4 4 4 4 4 4 4 4 5 4 4 4 4 4 5 5 5 5 9 14 18 22 23 24 25 25 25 24 24 24 23 22 21 20
9 8 6 5 4 4 4 4 4 3 4 4 4 4 4 4 5 5 6 5 5 5 5 7 9 10 14 20 23 25 25 25 25 24 23 23 21 21
9 8 7 6 5 5 7 7 6 5 5 4 4 5 6 6 5 6 6 5 4 5 6 7 8 9 9 13 20 25 26 26 26 25 24 23 23 22
8 7 7 7 6 5 6 7 8 10 10 6 6 7 6 5 6 6 6 6 5 5 6 7 7 9 8 14 23 26 27 27 26 25 24 24 24 23
7 5 5 5 4 5 6 7 6 6 6 6 7 7 5 4 5 6 6 5 3 3 4 5 5 6 6 9 23 26 27 27 26 26 25 25 25 24
6 5 5 4 5 7 6 7 7 6 6 7 8 8 8 8 5 4 5 5 4 3 2 4 4 3 3 6 13 24 26 26 26 26 26 26 26 24
6 5 3 4 5 6 5 6 6 6 6 6 6 7 7 7 9 8 7 6 4 3 4 4 4 4 3 2 6 13 18 22 26 26 27 27 27 19
5 5 3 4 6 7 7 5 7 7 6 6 5 4 4 3 4 4 5 6 6 3 5 5 4 4 4 3 2 6 9 10 13 17 25 28 26 18
6 5 4 7 9 10 7 7 9 8 5 4 4 3 2 2 2 3 3 3 4 5 7 6 4 5 6 5 4 4 7 9 9 9 13 21 20 16
6 9 11 13 12 9 8 8 7 4 3 3 3 2 1 1 2 2 3 4 4 4 6 5 6 6 6 6 6 6 5 5 8 9 10 10 9 9
6 7 10 12 10 9 8 6 4 3 2 2 2 1 1 1 1 2 2 3 3 2 3 6 7 8 5 7 8 8 6 7 9 9 9 8 9 12
4 5 6 6 4 4 4 3 2 2 2 1 1 1 0 1 1 1 2 2 3 4 4 3 5 5 5 7 8 9 8 7 9 9 9 8 8 9
3 5 6 6 6 5 4 3 3 2 2 2 1 1 1 2 2 1 2 3 4 4 5 5 6 5 4 4 4 9 8 7 8 9 8 7 8 8
4 6 7 7 6 5 5 4 4 4 3 3 2 2 2 2 2 3 3 4 4 4 5 5 6 6 6 5 3 4 8 8 9 8 8 6 7 8
6 8 8 7 6 6 5 4 4 4 4 4 3 3 3 3 3 3 4 4 5 5 5 5 5 5 6 6 5 5 9 9 9 10 8 6 4 4
7 8 8 7 6 6 5 5 5 5 5 5 4 4 4 4 4 4 4 7 5 5 6 6 5 5 4 5 5 4 5 6 8 7 9 7 5 5
8 8 7 7 6 6 6 5 5 5 6 6 5 6 5 5 5 5 6 6 5 5 5 4 5 5 4 5 6 6 6 4 3 4 8 8 6 8
8 8 8 7 6 6 5 6 7 6 6 6 6 6 6 6 5 6 6 6 6 6 6 6 5 4 4 4 6 5 7 7 5 4 3 6 8 9
Wind_Direction
297 286 270 255 248 243 236 222 213 224 233 225 220 220 211 204 183 188 186 195 195 195 196 198 200 202 203 205 206 205 204 200 195 190 189 188 187 185
297 287 284 267 257 248 243 238 223 216 234 231 217 217 208 207 190 193 196 194 196 197 198 198 199 200 202 203 203 202 200 196 191 188 186 186 186 180
316 312 307 293 275 261 253 246 238 222 233 247 235 223 208 210 195 200 204 192 199 200 200 199 199 199 200 200 199 198 195 191 188 186 185 185 182 179
315 315 312 307 292 278 266 255 248 235 225 239 238 222 217 209 200 201 201 201 195 201 200 200 199 198 198 197 195 194 192 189 186 183 183 182 179 175
315 315 311 313 309 301 292 274 262 256 240 236 239 226 218 206 204 209 207 202 202 198 199 201 200 198 196 194 192 190 188 186 183 181 180 178 175 173
317 312 310 315 316 319 309 303 293 275 261 247 240 230 218 204 193 200 210 207 207 193 194 198 200 199 195 192 189 187 184 181 179 177 175 173 172 172
314 313 317 310 298 291 296 306 310 289 269 255 247 238 220 201 204 198 204 202 210 190 181 189 188 195 196 193 188 184 179 177 175 174 172 171 171 171
312 316 314 294 296 288 275 269 262 264 265 259 257 245 234 220 204 198 198 197 213 195 189 196 186 192 193 193 188 181 177 174 172 171 170 170 169 168
302 306 314 321 342 336 320 295 272 256 245 247 257 254 248 231 209 204 205 203 210 187 182 204 193 196 188 187 180 177 174 173 171 169 169 169 168 166
296 302 308 326 1 357 329 311 293 280 258 244 247 255 256 247 219 208 205 211 207 192 178 196 189 190 180 177 177 174 172 171 170 169 169 168 166 164
314 330 333 333 356 350 321 306 307 301 286 268 259 260 259 247 219 190 188 189 203 200 177 171 163 149 160 177 175 172 169 168 169 169 168 165 162 160
318 321 335 342 339 337 317 308 309 310 316 301 278 263 252 234 217 207 197 192 184 189 179 163 152 139 137 138 166 170 168 167 167 166 165 162 158 155
312 316 322 338 327 319 312 293 290 299 300 295 281 268 245 221 207 202 199 189 180 185 174 153 149 142 139 129 133 163 163 161 163 164 164 162 160 159
290 297 306 316 312 307 300 290 296 301 287 288 289 275 251 225 195 182 175 170 168 167 167 157 149 159 145 138 139 142 148 153 155 157 162 163 164 164
271 286 294 295 297 295 284 289 297 288 286 289 293 290 290 211 139 130 120 121 114 132 153 156 146 151 146 145 147 147 139 148 153 155 160 166 171 169
275 291 294 281 270 269 281 281 269 264 272 274 278 291 317 101 121 129 138 139 132 123 131 145 147 149 141 138 147 151 149 157 163 161 161 166 177 184
326 300 289 285 273 256 256 253 253 278 278 280 271 277 229 136 126 127 146 149 152 155 145 129 115 111 122 143 152 156 153 153 160 161 162 172 187 193
295 280 282 280 275 269 256 250 234 234 233 230 226 228 209 176 161 156 155 155 151 153 151 145 134 118 96 57 132 157 159 158 160 164 163 171 189 198
247 261 266 268 267 263 253 242 230 220 208 199 205 214 200 188 180 171 163 157 153 149 151 152 154 149 152 155 163 168 162 162 164 171 177 176 189 197
233 248 255 256 257 255 249 243 232 214 200 198 198 202 197 194 185 178 169 163 158 150 152 162 171 169 167 162 160 174 177 166 169 177 180 179 167 174
246 245 246 244 246 247 243 236 228 215 205 199 196 196 197 191 187 178 167 162 156 159 169 178 177 158 127 120 126 142 164 177 174 172 173 171 173 176
251 255 254 248 242 242 239 233 233 223 212 208 202 198 196 190 185 176 169 171 172 166 164 159 154 156 159 160 161 158 157 148 134 153 177 179 171 190
250 250 248 244 237 236 237 233 233 232 220 210 204 199 194 192 187 181 176 176 175 170 157 155 160 166 173 168 165 162 164 166 162 163 198 196 180 159
Height
1483 1482 1482 1482 1482 1483 1484 1485 1487 1486 1487 1488 1490 1491 1494 1497 1499 1501 1504 1508 1512 1514 1517 1520 1523 1526 1529 1532 1535 1538 1541 1543 1546 1548 1550 1552 1554 1556
1480 1479 1479 1479 1479 1479 1479 1480 1481 1482 1482 1483 1485 1487 1489 1491 1493 1496 1499 1501 1505 1508 1512 1515 1518 1521 1524 1527 1530 1533 1536 1539 1542 1544 1547 1549 1551 1553
1478 1477 1476 1475 1475 1475 1475 1475 1476 1477 1477 1478 1480 1482 1483 1485 1487 1490 1492 1495 1498 1501 1505 1509 1512 1515 1519 1522 1525 1528 1532 1535 1538 1540 1543 1545 1548 1550
1476 1474 1473 1472 1472 1471 1471 1471 1471 1472 1473 1473 1474 1476 1478 1480 1482 1484 1486 1489 1491 1495 1498 1502 1506 1509 1513 1516 1520 1523 1527 1530 1533 1536 1539 1542 1544 1546
1473 1472 1470 1469 1468 1468 1467 1467 1467 1468 1468 1468 1469 1471 1473 1475 1477 1478 1480 1483 1485 1488 1492 1495 1499 1503 1507 1511 1514 1518 1521 1525 1528 1531 1534 1537 1540 1542
1471 1470 1468 1467 1466 1465 1464 1464 1463 1463 1463 1464 1464 1465 1467 1469 1471 1473 1475 1477 1479 1482 1485 1488 1492 1496 1500 1504 1508 1511 1515 1519 1523 1526 1529 1533 1536 1538
1468 1467 1466 1464 1463 1462 1461 1460 1460 1459 1459 1459 1460 1460 1462 1463 1465 1467 1469 1471 1473 1476 1478 1481 1485 1488 1492 1497 1501 1505 1509 1513 1517 1521 1524 1528 1531 1534
1465 1464 1463 1462 1461 1460 1459 1457 1457 1456 1456 1455 1455 1456 1456 1458 1460 1462 1464 1466 1467 1470 1473 1475 1478 1481 1485 1489 1493 1498 1502 1506 1511 1515 1519 1523 1526 1529
1463 1462 1460 1459 1458 1457 1455 1454 1453 1453 1452 1452 1451 1451 1452 1453 1455 1456 1458 1460 1461 1464 1467 1469 1472 1474 1478 1482 1487 1491 1495 1500 1504 1509 1513 1517 1521 1525
1461 1460 1458 1457 1455 1454 1453 1451 1450 1449 1448 1448 1447 1447 1448 1448 1450 1451 1453 1455 1457 1459 1461 1463 1465 1468 1472 1475 1480 1484 1489 1493 1498 1503 1508 1512 1516 1520
1460 1458 1456 1455 1453 1452 1450 1448 1447 1446 1445 1444 1443 1442 1443 1443 1444 1446 1448 1450 1451 1453 1455 1457 1459 1462 1466 1469 1473 1478 1482 1487 1492 1497 1503 1507 1512 1515
1458 1456 1454 1453 1451 1450 1448 1446 1444 1443 1442 1440 1439 1438 1438 1438 1439 1440 1442 1444 1445 1447 1449 1452 1454 1457 1461 1463 1467 1472 1476 1482 1487 1492 1497 1502 1506 1510
1455 1454 1452 1451 1449 1447 1445 1443 1442 1440 1438 1437 1435 1434 1434 1434 1435 1435 1437 1439 1441 1442 1444 1447 1449 1452 1455 1458 1463 1466 1471 1476 1482 1487 1492 1497 1501 1505
1453 1452 1450 1449 1447 1445 1443 1441 1439 1437 1436 1434 1432 1431 1431 1430 1431 1432 1433 1434 1436 1438 1441 1443 1444 1446 1449 1454 1458 1462 1466 1471 1476 1481 1487 1492 1496 1500
1451 1450 1448 1447 1445 1443 1441 1439 1437 1435 1434 1432 1430 1429 1428 1428 1428 1428 1429 1431 1433 1435 1437 1439 1441 1443 1446 1449 1453 1458 1462 1467 1472 1477 1482 1487 1491 1495
1449 1447 1446 1444 1443 1441 1439 1438 1436 1434 1432 1431 1429 1428 1427 1426 1426 1426 1427 1428 1430 1432 1434 1436 1438 1441 1444 1447 1450 1454 1459 1463 1468 1473 1478 1483 1487 1491
1446 1444 1443 1442 1440 1439 1438 1436 1434 1433 1431 1429 1428 1427 1426 1425 1424 1425 1425 1426 1427 1429 1431 1434 1437 1440 1443 1445 1449 1452 1456 1461 1465 1470 1474 1478 1483 1487
1443 1441 1440 1439 1438 1437 1436 1434 1433 1431 1430 1428 1427 1425 1424 1424 1423 1423 1423 1424 1425 1427 1429 1431 1434 1437 1441 1444 1448 1450 1454 1458 1462 1467 1471 1475 1479 1483
1439 1437 1436 1435 1434 1434 1433 1432 1431 1429 1428 1427 1426 1424 1423 1423 1422 1422 1422 1423 1424 1425 1427 1430 1432 1435 1438 1441 1444 1448 1451 1455 1459 1463 1467 1471 1475 1479
1435 1434 1432 1432 1431 1430 1430 1429 1428 1427 1426 1425 1424 1423 1422 1421 1421 1421 1421 1422 1422 1424 1426 1428 1430 1433 1435 1438 1441 1445 1449 1452 1456 1460 1464 1468 1472 1476
1431 1430 1429 1428 1427 1427 1426 1426 1425 1424 1424 1423 1422 1421 1421 1421 1420 1420 1420 1421 1422 1423 1424 1426 1429 1432 1434 1438 1440 1442 1446 1450 1454 1457 1461 1464 1467 1470
1427 1426 1425 1424 1423 1423 1422 1421 1421 1421 1420 1420 1419 1419 1419 1419 1419 1419 1419 1420 1421 1422 1423 1426 1428 1430 1433 1435 1437 1440 1444 1447 1451 1454 1458 1461 1462 1464
1422 1421 1420 1419 1418 1418 1417 1417 1416 1416 1416 1416 1416 1416 1416 1416 1417 1417 1418 1419 1420 1421 1422 1424 1426 1429 1431 1434 1436 1438 1441 1445 1448 1451 1454 1457 1459 1462